Find Starlink 4796

NORAD ID: 53909 Int'l Des: 2022-119 Owner: SPXS Country: US Constellation: starlink operational
LEOCIRCULAR

Live-Position

3D-Globus wird geladen...

Über Starlink 4796

Beschreibung wird geladen...

Nächste Überflüge

Passes for default location (London). Set your location on the main map for personalized predictions.

Höhenverlauf

Loading altitude history...

Zweizeiliger Elementsatz

1 53909U 22119Z 26105.40299439 .00000561 00000-0 53353-4 0 9990
2 53909 53.2161 149.5694 0001205 100.9919 259.1208 15.08841439197367
Epoch: 15. Apr. 2026 • Age: 16 hours

Aktueller Status

Höhe 541.9 km
Geschwindigkeit 7.60 km/s
Subsatellitenpunkt 36.52°N, 56.55°E
Startdatum 24. Sept. 2022
Alter 3.5 years
Typ internet

Technische Details

Klassifizierung Payload
Masse 305.00 kg
Trockenmasse 290.00 kg
Gesamtmasse 305.00 kg
Länge 0.20 m
Durchmesser 2.80 m
Spannweite 9.00 m
Form Box + pan
Hersteller SPXS
Bus-Typ Starlink
Phasenstatus In Orbit
Besitzer/Staat SPXS/US

Most Searched